Overview Statistics Trail Chart Weather Telemetry Raw packets
 

This is the latest recevied weather packets stored in our database for station/object N6GPM. If no packets are shown the sender has not sent any weather packets the latest 10 day(s).

<< 20 21 22 23 24 25 26 >>
Time Temp. Humidity Pressure Rain* Wind** Luminosity Snow
1788541118 21.11° C 61% 1018 hPa 0 mm - 696 W/m² -
1788540811 21.11° C 62% 1018.1 hPa 0 mm - 682 W/m² -
1788540506 20.56° C 64% 1017.9 hPa 0 mm - 666 W/m² -
1788540200 21.11° C 63% 1017.9 hPa 0 mm - 646 W/m² -
1788539897 20.56° C 66% 1017.8 hPa 0 mm - 623 W/m² -
1788539592 20.56° C 66% 1017.7 hPa 0 mm - 603 W/m² -
1788539291 20° C 68% 1017.7 hPa 0 mm - 587 W/m² -
1788538987 20° C 69% 1017.9 hPa 0 mm - 567 W/m² -
1788538681 19.44° C 70% 1017.7 hPa 0 mm - 547 W/m² -
1788538376 19.44° C 70% 1017.6 hPa 0 mm - 527 W/m² -
1788538072 19.44° C 70% 1017.6 hPa 0 mm - 506 W/m² -
1788537767 19.44° C 69% 1017.8 hPa 0 mm - 488 W/m² -
1788537467 19.44° C 71% 1017.6 hPa 0 mm - 437 W/m² -
1788537161 19.44° C 71% 1017.4 hPa 0 mm - 442 W/m² -
1788536859 18.89° C 73% 1017.6 hPa 0 mm - 420 W/m² -
1788536555 18.33° C 75% 1017.5 hPa 0 mm - 395 W/m² -
1788536250 18.33° C 75% 1017.5 hPa 0 mm - 67 W/m² -
1788535946 18.33° C 76% 1017.5 hPa 0 mm - 354 W/m² -
1788535641 17.22° C 78% 1017.5 hPa 0 mm - 335 W/m² -
1788535336 17.78° C 77% 1017.6 hPa 0 mm - 68 W/m² -
1788535031 17.78° C 76% 1017.9 hPa 0 mm - 130 W/m² -
1788534730 17.78° C 77% 1017.7 hPa 0 mm - 271 W/m² -
1788534426 17.78° C 78% 1017.6 hPa 0 mm - 248 W/m² -
1788534121 17.22° C 80% 1017.5 hPa 0 mm - 223 W/m² -
1788533819 17.22° C 80% 1017.7 hPa 0 mm - 72 W/m² -

* Rain latest hour (hover to see other rain measurements)
** Current wind speed in m/s (hover to see current wind gust speed)